User: anonymous   Login
Location: Unspecified
(0.0000°N, 0.0000°E)
Time: 04:32:32
(UTC+00:00)
Language:

STARLINK-34244 - Orbit

View from above orbital plane
View from above orbital plane
View from above satellite
View from above satellite

Ground track
Ground track

The orbit is defined by the following mean orbital elements,

1 65351U          26145.45009905 +.00000000 +00000-0 +12120-2 0 00001
2 65351  53.1578 171.2312 0001295  66.0098 294.1040 15.34389522    06
Epoch (UTC): 25 May 2026 10:48:08
Eccentricity: 0.0001295
inclination: 53.1578°
perigee height: 462 km
apogee height: 464 km
right ascension of ascending node: 171.2312°
argument of perigee: 66.0098°
revolutions per day: 15.34389522
mean anomaly at epoch: 294.1040°

The dashed part of the orbit path shows where the satellite is in the earth's shadow,  

DLR